When you browse on this site, cookies collect data to enhance your experience and personalize the content and advertising you see.
Visit our Privacy Policy to learn more. By continuing to use the site, you agree to this use of cookies and data.

Tiempo cada hora Kremenec

Hoy, 8 Julio, Miércoles

Tiempo Temperatura Precipitaciones Viento Presión Humedad
00:00 +10°C° 0 mm 3 mps 730 mmHg 95%
01:00 +10°C° 0 mm 3 mps 730 mmHg 95%
02:00 +8°C° 0 mm 4 mps 730 mmHg 95%
03:00 +9°C° 0 mm 3 mps 730 mmHg 95%
04:00 +9°C° 0 mm 3 mps 730 mmHg 95%
05:00 +8°C° 0 mm 3 mps 730 mmHg 96%
06:00 +10°C° 0 mm 3 mps 730 mmHg 92%
07:00 +11°C° 0 mm 3 mps 731 mmHg 89%
08:00 +13°C° 0 mm 4 mps 731 mmHg 86%
09:00 +14°C° 0.1 mm 4 mps 731 mmHg 80%
10:00 +15°C° 0.1 mm 4 mps 731 mmHg 73%
11:00 +16°C° 0.1 mm 5 mps 732 mmHg 67%
12:00 +17°C° 0 mm 5 mps 732 mmHg 65%
13:00 +17°C° 0 mm 5 mps 732 mmHg 64%
14:00 +19°C° 0 mm 5 mps 731 mmHg 62%
15:00 +19°C° 0 mm 4 mps 731 mmHg 65%
16:00 +18°C° 0 mm 4 mps 731 mmHg 69%
17:00 +18°C° 0 mm 4 mps 731 mmHg 72%
18:00 +17°C° 0 mm 3 mps 731 mmHg 76%
19:00 +16°C° 0 mm 2 mps 731 mmHg 79%
20:00 +15°C° 0 mm 1 mps 731 mmHg 83%
21:00 +15°C° 0 mm 1 mps 731 mmHg 82%
22:00 +14°C° 0 mm 2 mps 731 mmHg 81%
23:00 +14°C° 0 mm 2 mps 731 mmHg 80%

Mañana, 9 Julio, Jueves

Tiempo Temperatura Precipitaciones Viento Presión Humedad
00:00 +14°C° 0.5 mm 2 mps 731 mmHg 84%
01:00 +14°C° 0.5 mm 2 mps 731 mmHg 88%
02:00 +14°C° 0.5 mm 2 mps 731 mmHg 92%
03:00 +14°C° 1.1 mm 2 mps 731 mmHg 94%
04:00 +13°C° 1.1 mm 2 mps 731 mmHg 95%
05:00 +13°C° 1.1 mm 2 mps 731 mmHg 97%
06:00 +13°C° 0.2 mm 2 mps 732 mmHg 96%
07:00 +14°C° 0.2 mm 2 mps 732 mmHg 95%
08:00 +14°C° 0.2 mm 2 mps 732 mmHg 94%
09:00 +15°C° 0.2 mm 2 mps 733 mmHg 87%
10:00 +16°C° 0.2 mm 2 mps 733 mmHg 80%
11:00 +18°C° 0.2 mm 2 mps 733 mmHg 74%
12:00 +19°C° 0.1 mm 2 mps 733 mmHg 69%
13:00 +19°C° 0.1 mm 2 mps 733 mmHg 65%
14:00 +20°C° 0.1 mm 2 mps 733 mmHg 61%
15:00 +20°C° 0 mm 2 mps 733 mmHg 62%
16:00 +21°C° 0 mm 1 mps 733 mmHg 63%
17:00 +21°C° 0 mm 1 mps 733 mmHg 64%
18:00 +20°C° 0 mm 1 mps 733 mmHg 71%
19:00 +19°C° 0 mm 1 mps 733 mmHg 77%
20:00 +16°C° 0 mm 1 mps 732 mmHg 83%
21:00 +16°C° 0 mm 1 mps 733 mmHg 86%
22:00 +15°C° 0 mm 1 mps 733 mmHg 89%
23:00 +14°C° 0 mm 2 mps 733 mmHg 91%

Pasado mañana, 10 Julio, Viernes

Tiempo Temperatura Precipitaciones Viento Presión Humedad
00:00 +14°C° 0 mm 2 mps 733 mmHg 92%
01:00 +14°C° 0 mm 2 mps 733 mmHg 93%
02:00 +13°C° 0 mm 2 mps 732 mmHg 94%
03:00 +13°C° 0 mm 2 mps 732 mmHg 94%
04:00 +13°C° 0 mm 3 mps 732 mmHg 94%
05:00 +13°C° 0 mm 3 mps 732 mmHg 93%
06:00 +14°C° 0 mm 4 mps 732 mmHg 90%
07:00 +17°C° 0 mm 4 mps 732 mmHg 86%
08:00 +17°C° 0 mm 5 mps 732 mmHg 83%
09:00 +20°C° 0 mm 5 mps 732 mmHg 79%
10:00 +21°C° 0 mm 5 mps 733 mmHg 76%
11:00 +23°C° 0 mm 5 mps 733 mmHg 72%
12:00 +25°C° 0.2 mm 5 mps 732 mmHg 71%
13:00 +26°C° 0.2 mm 5 mps 732 mmHg 70%
14:00 +26°C° 0.2 mm 5 mps 732 mmHg 69%
15:00 +26°C° 0.5 mm 4 mps 732 mmHg 71%
16:00 +26°C° 0.5 mm 4 mps 732 mmHg 73%
17:00 +26°C° 0.5 mm 4 mps 731 mmHg 76%
18:00 +25°C° 0.2 mm 4 mps 731 mmHg 80%
19:00 +22°C° 0.2 mm 4 mps 731 mmHg 84%
20:00 +21°C° 0.2 mm 3 mps 731 mmHg 89%
21:00 +20°C° 0 mm 4 mps 731 mmHg 89%
22:00 +20°C° 0 mm 4 mps 731 mmHg 89%
23:00 +19°C° 0 mm 4 mps 731 mmHg 89%

11 Julio, Sábado

Tiempo Temperatura Precipitaciones Viento Presión Humedad
00:00 +18°C° 0 mm 3 mps 731 mmHg 89%
01:00 +18°C° 0 mm 3 mps 731 mmHg 88%
02:00 +17°C° 0 mm 3 mps 730 mmHg 88%
03:00 +17°C° 0 mm 3 mps 730 mmHg 89%
04:00 +17°C° 0 mm 3 mps 730 mmHg 90%
05:00 +17°C° 0 mm 3 mps 731 mmHg 91%
06:00 +18°C° 0 mm 3 mps 731 mmHg 88%
07:00 +20°C° 0 mm 3 mps 731 mmHg 85%
08:00 +22°C° 0 mm 3 mps 731 mmHg 82%
09:00 +25°C° 0.1 mm 3 mps 731 mmHg 77%
10:00 +26°C° 0.1 mm 3 mps 731 mmHg 71%
11:00 +28°C° 0.1 mm 3 mps 731 mmHg 66%
12:00 +28°C° 0.1 mm 2 mps 731 mmHg 61%
13:00 +29°C° 0.1 mm 2 mps 731 mmHg 55%
14:00 +30°C° 0.1 mm 2 mps 731 mmHg 50%
15:00 +29°C° 0 mm 2 mps 731 mmHg 56%
16:00 +29°C° 0 mm 3 mps 730 mmHg 61%
17:00 +29°C° 0 mm 3 mps 730 mmHg 66%
18:00 +27°C° 0.5 mm 3 mps 730 mmHg 72%
19:00 +25°C° 0.5 mm 3 mps 730 mmHg 78%
20:00 +22°C° 0.5 mm 3 mps 730 mmHg 85%
21:00 +21°C° 0.6 mm 3 mps 730 mmHg 87%
22:00 +20°C° 0.6 mm 2 mps 730 mmHg 90%
23:00 +19°C° 0.6 mm 2 mps 730 mmHg 92%

12 Julio, Domingo

Tiempo Temperatura Precipitaciones Viento Presión Humedad
00:00 +19°C° 0.1 mm 3 mps 730 mmHg 93%
01:00 +18°C° 0.1 mm 3 mps 730 mmHg 95%
02:00 +17°C° 0.1 mm 4 mps 730 mmHg 96%
03:00 +15°C° 0.2 mm 4 mps 730 mmHg 96%
04:00 +14°C° 0.2 mm 5 mps 730 mmHg 97%
05:00 +14°C° 0.2 mm 5 mps 730 mmHg 97%
06:00 +13°C° 0.3 mm 6 mps 730 mmHg 96%
07:00 +13°C° 0.3 mm 6 mps 730 mmHg 96%
08:00 +12°C° 0.3 mm 7 mps 731 mmHg 95%
09:00 +11°C° 0.7 mm 7 mps 731 mmHg 94%
10:00 +11°C° 0.7 mm 6 mps 732 mmHg 92%
11:00 +11°C° 0.7 mm 6 mps 732 mmHg 91%
12:00 +13°C° 0.5 mm 6 mps 733 mmHg 88%
13:00 +13°C° 0.5 mm 5 mps 733 mmHg 86%
14:00 +14°C° 0.5 mm 5 mps 733 mmHg 84%
15:00 +14°C° 0 mm 4 mps 733 mmHg 80%
16:00 +15°C° 0 mm 4 mps 733 mmHg 76%
17:00 +17°C° 0 mm 4 mps 734 mmHg 72%
18:00 +15°C° 0.1 mm 4 mps 734 mmHg 77%
19:00 +14°C° 0.1 mm 3 mps 733 mmHg 83%
20:00 +14°C° 0.1 mm 2 mps 733 mmHg 88%
21:00 +14°C° 0 mm 2 mps 733 mmHg 90%
22:00 +12°C° 0 mm 3 mps 734 mmHg 91%
23:00 +11°C° 0 mm 3 mps 734 mmHg 92%

13 Julio, Lunes

Tiempo Temperatura Precipitaciones Viento Presión Humedad
00:00 +11°C° 0 mm 3 mps 734 mmHg 93%
01:00 +10°C° 0 mm 3 mps 734 mmHg 94%
02:00 +10°C° 0 mm 3 mps 734 mmHg 95%
03:00 +9°C° 0 mm 3 mps 733 mmHg 95%
04:00 +9°C° 0 mm 3 mps 733 mmHg 95%
05:00 +9°C° 0 mm 3 mps 733 mmHg 96%
06:00 +10°C° 0 mm 3 mps 733 mmHg 92%
07:00 +12°C° 0 mm 4 mps 733 mmHg 88%
08:00 +13°C° 0 mm 4 mps 734 mmHg 84%
09:00 +14°C° 0.1 mm 4 mps 734 mmHg 78%
10:00 +15°C° 0.1 mm 5 mps 734 mmHg 73%
11:00 +16°C° 0.1 mm 5 mps 734 mmHg 68%
12:00 +17°C° 0.2 mm 5 mps 734 mmHg 67%
13:00 +17°C° 0.2 mm 5 mps 734 mmHg 66%
14:00 +17°C° 0.2 mm 5 mps 733 mmHg 65%
15:00 +17°C° 0.1 mm 5 mps 733 mmHg 66%
16:00 +17°C° 0.1 mm 5 mps 733 mmHg 67%
17:00 +17°C° 0.1 mm 5 mps 733 mmHg 68%
18:00 +17°C° 0 mm 4 mps 733 mmHg 74%
19:00 +14°C° 0 mm 3 mps 733 mmHg 79%
20:00 +13°C° 0 mm 3 mps 732 mmHg 85%
21:00 +12°C° 0 mm 3 mps 733 mmHg 87%
22:00 +12°C° 0 mm 3 mps 733 mmHg 89%
23:00 +11°C° 0 mm 3 mps 733 mmHg 91%
Mostrar más